Year,Month,Day,Hour,Minute,Value (Times are PST for temperature in C)
2019,06,26,00,00,17.90
2019,06,26,00,01,18.00
2019,06,26,00,02,18.00
2019,06,26,00,03,18.00
2019,06,26,00,04,18.00
2019,06,26,00,05,18.00
2019,06,26,00,06,18.10
2019,06,26,00,07,18.10
2019,06,26,00,08,18.10
2019,06,26,00,09,18.10
2019,06,26,00,10,18.10
2019,06,26,00,11,18.10
2019,06,26,00,12,18.10
2019,06,26,00,13,18.10
2019,06,26,00,14,18.10
2019,06,26,00,15,18.00
2019,06,26,00,16,18.00
2019,06,26,00,17,18.00
2019,06,26,00,18,17.90
2019,06,26,00,19,17.90
2019,06,26,00,20,17.90
2019,06,26,00,21,17.90
2019,06,26,00,22,17.90
2019,06,26,00,23,17.90
2019,06,26,00,24,17.80
2019,06,26,00,25,17.80
2019,06,26,00,26,17.80
2019,06,26,00,27,17.80
2019,06,26,00,28,17.80
2019,06,26,00,29,17.80
2019,06,26,00,30,17.80
2019,06,26,00,31,17.70
2019,06,26,00,32,17.70
2019,06,26,00,33,17.70
2019,06,26,00,34,17.70
2019,06,26,00,35,17.60
2019,06,26,00,36,17.60
2019,06,26,00,37,17.50
2019,06,26,00,38,17.50
2019,06,26,00,39,17.40
2019,06,26,00,40,17.40
2019,06,26,00,41,17.40
2019,06,26,00,42,17.30
2019,06,26,00,43,17.30
2019,06,26,00,44,17.30
2019,06,26,00,45,17.30
2019,06,26,00,46,17.20
2019,06,26,00,47,17.20
2019,06,26,00,48,17.10
2019,06,26,00,49,17.10
2019,06,26,00,50,17.10
2019,06,26,00,51,17.00
2019,06,26,00,52,17.00
2019,06,26,00,53,17.00
2019,06,26,00,54,16.90
2019,06,26,00,55,16.90
2019,06,26,00,56,16.90
2019,06,26,00,57,16.80
2019,06,26,00,58,16.80
2019,06,26,00,59,16.80
2019,06,26,01,00,16.80
2019,06,26,01,01,16.70
2019,06,26,01,02,16.70
2019,06,26,01,03,16.70
2019,06,26,01,04,16.70
2019,06,26,01,05,16.70
2019,06,26,01,06,16.60
2019,06,26,01,07,16.60
2019,06,26,01,08,16.60
2019,06,26,01,09,16.60
2019,06,26,01,10,16.60
2019,06,26,01,11,16.60
2019,06,26,01,12,16.50
2019,06,26,01,13,16.50
2019,06,26,01,14,16.50
2019,06,26,01,15,16.40
2019,06,26,01,16,16.40
2019,06,26,01,17,16.40
2019,06,26,01,18,16.40
2019,06,26,01,19,16.30
2019,06,26,01,20,16.30
2019,06,26,01,21,16.30
2019,06,26,01,22,16.30
2019,06,26,01,23,16.30
2019,06,26,01,24,16.30
2019,06,26,01,25,16.30
2019,06,26,01,26,16.20
2019,06,26,01,27,16.20
2019,06,26,01,28,16.10
2019,06,26,01,29,16.10
2019,06,26,01,30,16.10
2019,06,26,01,31,16.00
2019,06,26,01,32,16.00
2019,06,26,01,33,16.00
2019,06,26,01,34,16.00
2019,06,26,01,35,16.00
2019,06,26,01,36,16.00
2019,06,26,01,37,16.00
2019,06,26,01,38,16.00
2019,06,26,01,39,15.90
2019,06,26,01,40,15.90
2019,06,26,01,41,15.90
2019,06,26,01,42,15.90
2019,06,26,01,43,15.90
2019,06,26,01,44,15.90
2019,06,26,01,45,15.90
2019,06,26,01,46,15.90
2019,06,26,01,47,15.90
2019,06,26,01,48,15.90
2019,06,26,01,49,15.90
2019,06,26,01,50,15.90
2019,06,26,01,51,15.90
2019,06,26,01,52,15.90
2019,06,26,01,53,15.90
2019,06,26,01,54,15.90
2019,06,26,01,55,15.90
2019,06,26,01,56,15.90
2019,06,26,01,57,15.90
2019,06,26,01,58,15.90
2019,06,26,01,59,15.90
2019,06,26,02,00,15.90
2019,06,26,02,01,15.90
2019,06,26,02,02,15.90
2019,06,26,02,03,15.90
2019,06,26,02,04,15.90
2019,06,26,02,05,15.80
2019,06,26,02,06,15.80
2019,06,26,02,07,15.80
2019,06,26,02,08,15.90
2019,06,26,02,09,15.90
2019,06,26,02,10,15.90
2019,06,26,02,11,15.90
2019,06,26,02,12,15.80
2019,06,26,02,13,15.80
2019,06,26,02,14,15.80
2019,06,26,02,15,15.80
2019,06,26,02,16,15.80
2019,06,26,02,17,15.80
2019,06,26,02,18,15.80
2019,06,26,02,19,15.80
2019,06,26,02,20,15.80
2019,06,26,02,21,15.80
2019,06,26,02,22,15.80
2019,06,26,02,23,15.90
2019,06,26,02,24,15.80
2019,06,26,02,25,15.80
2019,06,26,02,26,15.80
2019,06,26,02,27,15.80
2019,06,26,02,28,15.80
2019,06,26,02,29,15.70
2019,06,26,02,30,15.70
2019,06,26,02,31,15.70
2019,06,26,02,32,15.70
2019,06,26,02,33,15.70
2019,06,26,02,34,15.70
2019,06,26,02,35,15.80
2019,06,26,02,36,15.70
2019,06,26,02,37,15.80
2019,06,26,02,38,15.80
2019,06,26,02,39,15.80
2019,06,26,02,40,15.70
2019,06,26,02,41,15.70
2019,06,26,02,42,15.70
2019,06,26,02,43,15.70
2019,06,26,02,44,15.60
2019,06,26,02,45,15.60
2019,06,26,02,46,15.60
2019,06,26,02,47,15.50
2019,06,26,02,48,15.50
2019,06,26,02,49,15.50
2019,06,26,02,50,15.40
2019,06,26,02,51,15.40
2019,06,26,02,52,15.40
2019,06,26,02,53,15.40
2019,06,26,02,54,15.40
2019,06,26,02,55,15.40
2019,06,26,02,56,15.40
2019,06,26,02,57,15.40
2019,06,26,02,58,15.30
2019,06,26,02,59,15.30
2019,06,26,03,00,15.30
2019,06,26,03,01,15.30
2019,06,26,03,02,15.30
2019,06,26,03,03,15.20
2019,06,26,03,04,15.20
2019,06,26,03,05,15.20
2019,06,26,03,06,15.20
2019,06,26,03,07,15.10
2019,06,26,03,08,15.10
2019,06,26,03,09,15.10
2019,06,26,03,10,15.10
2019,06,26,03,11,15.10
2019,06,26,03,12,15.10
2019,06,26,03,13,15.00
2019,06,26,03,14,15.00
2019,06,26,03,15,15.00
2019,06,26,03,16,15.00
2019,06,26,03,17,15.00
2019,06,26,03,18,14.90
2019,06,26,03,19,14.90
2019,06,26,03,20,14.90
2019,06,26,03,21,14.90
2019,06,26,03,22,14.90
2019,06,26,03,23,14.90
2019,06,26,03,24,14.90
2019,06,26,03,25,14.90
2019,06,26,03,26,14.90
2019,06,26,03,27,14.90
2019,06,26,03,28,14.90
2019,06,26,03,29,14.90
2019,06,26,03,30,14.90
2019,06,26,03,31,14.90
2019,06,26,03,32,14.80
2019,06,26,03,33,14.80
2019,06,26,03,34,14.80
2019,06,26,03,35,14.80
2019,06,26,03,36,14.80
2019,06,26,03,37,14.80
2019,06,26,03,38,14.80
2019,06,26,03,39,14.80
2019,06,26,03,40,14.80
2019,06,26,03,41,14.80
2019,06,26,03,42,14.80
2019,06,26,03,43,14.80
2019,06,26,03,44,14.80
2019,06,26,03,45,14.80
2019,06,26,03,46,14.80
2019,06,26,03,47,14.80
2019,06,26,03,48,14.80
2019,06,26,03,49,14.80
2019,06,26,03,50,14.80
2019,06,26,03,51,14.80
2019,06,26,03,52,14.80
2019,06,26,03,53,14.80
2019,06,26,03,54,14.80
2019,06,26,03,55,14.80
2019,06,26,03,56,14.90
2019,06,26,03,57,14.90
2019,06,26,03,58,14.90
2019,06,26,03,59,14.90
2019,06,26,04,00,14.90
2019,06,26,04,01,14.90
2019,06,26,04,02,14.90
2019,06,26,04,03,14.90
2019,06,26,04,04,14.90
2019,06,26,04,05,14.90
2019,06,26,04,06,14.90
2019,06,26,04,07,14.90
2019,06,26,04,08,14.90
2019,06,26,04,09,14.90
2019,06,26,04,10,14.90
2019,06,26,04,11,14.90
2019,06,26,04,12,14.90
2019,06,26,04,13,14.90
2019,06,26,04,14,14.90
2019,06,26,04,15,14.90
2019,06,26,04,16,14.80
2019,06,26,04,17,14.80
2019,06,26,04,18,14.80
2019,06,26,04,19,14.80
2019,06,26,04,20,14.80
2019,06,26,04,21,14.80
2019,06,26,04,22,14.80
2019,06,26,04,23,14.70
2019,06,26,04,24,14.70
2019,06,26,04,25,14.70
2019,06,26,04,26,14.70
2019,06,26,04,27,14.70
2019,06,26,04,28,14.70
2019,06,26,04,29,14.70
2019,06,26,04,30,14.70
2019,06,26,04,31,14.70
2019,06,26,04,32,14.70
2019,06,26,04,33,14.70
2019,06,26,04,34,14.70
2019,06,26,04,35,14.70
2019,06,26,04,36,14.70
2019,06,26,04,37,14.70
2019,06,26,04,38,14.70
2019,06,26,04,39,14.70
2019,06,26,04,40,14.70
2019,06,26,04,41,14.70
2019,06,26,04,42,14.70
2019,06,26,04,43,14.70
2019,06,26,04,44,14.70
2019,06,26,04,45,14.70
2019,06,26,04,46,14.70
2019,06,26,04,47,14.70
2019,06,26,04,48,14.70
2019,06,26,04,49,14.70
2019,06,26,04,50,14.70
2019,06,26,04,51,14.70
2019,06,26,04,52,14.70
2019,06,26,04,53,14.70
2019,06,26,04,54,14.70
2019,06,26,04,55,14.70
2019,06,26,04,56,14.70
2019,06,26,04,57,14.70
2019,06,26,04,58,14.70
2019,06,26,04,59,14.70
2019,06,26,05,00,14.70
2019,06,26,05,01,14.70
2019,06,26,05,02,14.70
2019,06,26,05,03,14.70
2019,06,26,05,04,14.70
2019,06,26,05,05,14.70
2019,06,26,05,06,14.70
2019,06,26,05,07,14.70
2019,06,26,05,08,14.70
2019,06,26,05,09,14.70
2019,06,26,05,10,14.70
2019,06,26,05,11,14.70
2019,06,26,05,12,14.70
2019,06,26,05,13,14.70
2019,06,26,05,14,14.70
2019,06,26,05,15,14.60
2019,06,26,05,16,14.60
2019,06,26,05,17,14.60
2019,06,26,05,18,14.60
2019,06,26,05,19,14.60
2019,06,26,05,20,14.60
2019,06,26,05,21,14.60
2019,06,26,05,22,14.60
2019,06,26,05,23,14.60
2019,06,26,05,24,14.60
2019,06,26,05,25,14.60
2019,06,26,05,26,14.60
2019,06,26,05,27,14.60
2019,06,26,05,28,14.60
2019,06,26,05,29,14.60
2019,06,26,05,30,14.60
2019,06,26,05,31,14.50
2019,06,26,05,32,14.50
2019,06,26,05,33,14.50
2019,06,26,05,34,14.50
2019,06,26,05,35,14.50
2019,06,26,05,36,14.50
2019,06,26,05,37,14.50
2019,06,26,05,38,14.50
2019,06,26,05,39,14.50
2019,06,26,05,40,14.50
2019,06,26,05,41,14.50
2019,06,26,05,42,14.50
2019,06,26,05,43,14.50
2019,06,26,05,44,14.50
2019,06,26,05,45,14.50
2019,06,26,05,46,14.50
2019,06,26,05,47,14.50
2019,06,26,05,48,14.50
2019,06,26,05,49,14.50
2019,06,26,05,50,14.50
2019,06,26,05,51,14.50
2019,06,26,05,52,14.50
2019,06,26,05,53,14.50
2019,06,26,05,54,14.50
2019,06,26,05,55,14.50
2019,06,26,05,56,14.50
2019,06,26,05,57,14.50
2019,06,26,05,58,14.50
2019,06,26,05,59,14.50
2019,06,26,06,00,14.50
2019,06,26,06,01,14.40
2019,06,26,06,02,14.40
2019,06,26,06,03,14.50
2019,06,26,06,04,14.40
2019,06,26,06,05,14.40
2019,06,26,06,06,14.40
2019,06,26,06,07,14.40
2019,06,26,06,08,14.40
2019,06,26,06,09,14.40
2019,06,26,06,10,14.40
2019,06,26,06,11,14.40
2019,06,26,06,12,14.40
2019,06,26,06,13,14.40
2019,06,26,06,14,14.40
2019,06,26,06,15,14.40
2019,06,26,06,16,14.40
2019,06,26,06,17,14.40
2019,06,26,06,18,14.40
2019,06,26,06,19,14.40
2019,06,26,06,20,14.40
2019,06,26,06,21,14.40
2019,06,26,06,22,14.40
2019,06,26,06,23,14.30
2019,06,26,06,24,14.30
2019,06,26,06,25,14.30
2019,06,26,06,26,14.30
2019,06,26,06,27,14.30
2019,06,26,06,28,14.30
2019,06,26,06,29,14.30
2019,06,26,06,30,14.30
2019,06,26,06,31,14.30
2019,06,26,06,32,14.30
2019,06,26,06,33,14.30
2019,06,26,06,34,14.20
2019,06,26,06,35,14.20
2019,06,26,06,36,14.20
2019,06,26,06,37,14.20
2019,06,26,06,38,14.20
2019,06,26,06,39,14.20
2019,06,26,06,40,14.20
2019,06,26,06,41,14.20
2019,06,26,06,42,14.20
2019,06,26,06,43,14.20
2019,06,26,06,44,14.20
2019,06,26,06,45,14.20
2019,06,26,06,46,14.20
2019,06,26,06,47,14.20
2019,06,26,06,48,14.20
2019,06,26,06,49,14.10
2019,06,26,06,50,14.10
2019,06,26,06,51,14.10
2019,06,26,06,52,14.10
2019,06,26,06,53,14.10
2019,06,26,06,54,14.10
2019,06,26,06,55,14.10
2019,06,26,06,56,14.10
2019,06,26,06,57,14.10
2019,06,26,06,58,14.00
2019,06,26,06,59,14.00
2019,06,26,07,00,14.00
2019,06,26,07,01,14.00
2019,06,26,07,02,14.00
2019,06,26,07,03,14.00
2019,06,26,07,04,14.00
2019,06,26,07,05,14.00
2019,06,26,07,06,14.00
2019,06,26,07,07,14.00
2019,06,26,07,08,14.00
2019,06,26,07,09,14.00
2019,06,26,07,10,14.00
2019,06,26,07,11,14.00
2019,06,26,07,12,13.90
2019,06,26,07,13,13.90
2019,06,26,07,14,13.90
2019,06,26,07,15,13.90
2019,06,26,07,16,13.90
2019,06,26,07,17,13.90
2019,06,26,07,18,13.90
2019,06,26,07,19,13.90
2019,06,26,07,20,13.90
2019,06,26,07,21,13.90
2019,06,26,07,22,13.90
2019,06,26,07,23,13.90
2019,06,26,07,24,13.90
2019,06,26,07,25,13.90
2019,06,26,07,26,13.90
2019,06,26,07,27,13.90
2019,06,26,07,28,13.90
2019,06,26,07,29,13.90
2019,06,26,07,30,13.90
2019,06,26,07,31,13.90
2019,06,26,07,32,13.90
2019,06,26,07,33,13.90
2019,06,26,07,34,13.90
2019,06,26,07,35,13.90
2019,06,26,07,36,13.90
2019,06,26,07,37,13.90
2019,06,26,07,38,13.90
2019,06,26,07,39,13.90
2019,06,26,07,40,13.80
2019,06,26,07,41,13.80
2019,06,26,07,42,13.80
2019,06,26,07,43,13.80
2019,06,26,07,44,13.80
2019,06,26,07,45,13.80
2019,06,26,07,46,13.80
2019,06,26,07,47,13.70
2019,06,26,07,48,13.70
2019,06,26,07,49,13.70
2019,06,26,07,50,13.70
2019,06,26,07,51,13.60
2019,06,26,07,52,13.60
2019,06,26,07,53,13.60
2019,06,26,07,54,13.50
2019,06,26,07,55,13.50
2019,06,26,07,56,13.50
2019,06,26,07,57,13.40
2019,06,26,07,58,13.40
2019,06,26,07,59,13.40
2019,06,26,08,00,13.40
2019,06,26,08,01,13.40
2019,06,26,08,02,13.40
2019,06,26,08,03,13.30
2019,06,26,08,04,13.30
2019,06,26,08,05,13.30
2019,06,26,08,06,13.30
2019,06,26,08,07,13.30
2019,06,26,08,08,13.30
2019,06,26,08,09,13.30
2019,06,26,08,10,13.30
2019,06,26,08,11,13.20
2019,06,26,08,12,13.20
2019,06,26,08,13,13.20
2019,06,26,08,14,13.20
2019,06,26,08,15,13.20
2019,06,26,08,16,13.20
2019,06,26,08,17,13.20
2019,06,26,08,18,13.20
2019,06,26,08,19,13.20
2019,06,26,08,20,13.20
2019,06,26,08,21,13.10
2019,06,26,08,22,13.10
2019,06,26,08,23,13.10
2019,06,26,08,24,13.10
2019,06,26,08,25,13.10
2019,06,26,08,26,13.10
2019,06,26,08,27,13.10
2019,06,26,08,28,13.10
2019,06,26,08,29,13.10
2019,06,26,08,30,13.10
2019,06,26,08,31,13.10
2019,06,26,08,32,13.20
2019,06,26,08,33,13.20
2019,06,26,08,34,13.20
2019,06,26,08,35,13.20
2019,06,26,08,36,13.20
2019,06,26,08,37,13.20
2019,06,26,08,38,13.20
2019,06,26,08,39,13.20
2019,06,26,08,40,13.20
2019,06,26,08,41,13.20
2019,06,26,08,42,13.30
2019,06,26,08,43,13.30
2019,06,26,08,44,13.30
2019,06,26,08,45,13.30
2019,06,26,08,46,13.30
2019,06,26,08,47,13.30
2019,06,26,08,48,13.30
2019,06,26,08,49,13.40
2019,06,26,08,50,13.40
2019,06,26,08,51,13.40
2019,06,26,08,52,13.40
2019,06,26,08,53,13.40
2019,06,26,08,54,13.40
2019,06,26,08,55,13.50
2019,06,26,08,56,13.50
2019,06,26,08,57,13.50
2019,06,26,08,58,13.50
2019,06,26,08,59,13.50
2019,06,26,09,00,13.60
2019,06,26,09,01,13.60
2019,06,26,09,02,13.60
2019,06,26,09,03,13.60
2019,06,26,09,04,13.60
2019,06,26,09,05,13.60
2019,06,26,09,06,13.60
2019,06,26,09,07,13.70
2019,06,26,09,08,13.70
2019,06,26,09,09,13.70
2019,06,26,09,10,13.70
2019,06,26,09,11,13.80
2019,06,26,09,12,13.80
2019,06,26,09,13,13.80
2019,06,26,09,14,13.80
2019,06,26,09,15,13.80
2019,06,26,09,16,13.80
2019,06,26,09,17,13.80
2019,06,26,09,18,13.80
2019,06,26,09,19,13.80
2019,06,26,09,20,13.80
2019,06,26,09,21,13.80
2019,06,26,09,22,13.80
2019,06,26,09,23,13.80
2019,06,26,09,24,13.80
2019,06,26,09,25,13.80
2019,06,26,09,26,13.80
2019,06,26,09,27,13.80
2019,06,26,09,28,13.90
2019,06,26,09,29,13.90
2019,06,26,09,30,13.90
2019,06,26,09,31,13.90
2019,06,26,09,32,13.90
2019,06,26,09,33,13.90
2019,06,26,09,34,13.90
2019,06,26,09,35,13.90
2019,06,26,09,36,14.00
2019,06,26,09,37,14.00
2019,06,26,09,38,14.00
2019,06,26,09,39,14.10
2019,06,26,09,40,14.10
2019,06,26,09,41,14.10
2019,06,26,09,42,14.10
2019,06,26,09,43,14.10
2019,06,26,09,44,14.10
2019,06,26,09,45,14.10
2019,06,26,09,46,14.10
2019,06,26,09,47,14.10
2019,06,26,09,48,14.10
2019,06,26,09,49,14.10
2019,06,26,09,50,14.20
2019,06,26,09,51,14.20
2019,06,26,09,52,14.20
2019,06,26,09,53,14.30
2019,06,26,09,54,14.30
2019,06,26,09,55,14.40
2019,06,26,09,56,14.40
2019,06,26,09,57,14.50
2019,06,26,09,58,14.50
2019,06,26,09,59,14.60
2019,06,26,10,00,14.70
2019,06,26,10,01,14.70
2019,06,26,10,02,14.80
2019,06,26,10,03,14.80
2019,06,26,10,04,14.80
2019,06,26,10,05,14.90
2019,06,26,10,06,14.90
2019,06,26,10,07,14.90
2019,06,26,10,08,15.00
2019,06,26,10,09,15.00
2019,06,26,10,10,15.20
2019,06,26,10,11,15.30
2019,06,26,10,12,15.40
2019,06,26,10,13,15.50
2019,06,26,10,14,15.50
2019,06,26,10,15,15.60
2019,06,26,10,16,15.60
2019,06,26,10,17,15.70
2019,06,26,10,18,15.80
2019,06,26,10,19,15.80
2019,06,26,10,20,15.80
2019,06,26,10,21,15.70
2019,06,26,10,22,15.70
2019,06,26,10,23,15.80
2019,06,26,10,24,15.80
2019,06,26,10,25,15.90
2019,06,26,10,26,15.90
2019,06,26,10,27,15.90
2019,06,26,10,28,16.00
2019,06,26,10,29,16.00
2019,06,26,10,30,16.10
2019,06,26,10,31,16.20
2019,06,26,10,32,16.20
2019,06,26,10,33,16.30
2019,06,26,10,34,16.40
2019,06,26,10,35,16.50
2019,06,26,10,36,16.60
2019,06,26,10,37,16.70
2019,06,26,10,38,16.70
2019,06,26,10,39,16.80
2019,06,26,10,40,16.90
2019,06,26,10,41,16.90
2019,06,26,10,42,17.00
2019,06,26,10,43,17.10
2019,06,26,10,44,17.20
2019,06,26,10,45,17.20
2019,06,26,10,46,17.30
2019,06,26,10,47,17.30
2019,06,26,10,48,17.40
2019,06,26,10,49,17.50
2019,06,26,10,50,17.50
2019,06,26,10,51,17.60
2019,06,26,10,52,17.60
2019,06,26,10,53,17.60
2019,06,26,10,54,17.60
2019,06,26,10,55,17.70
2019,06,26,10,56,17.70
2019,06,26,10,57,17.70
2019,06,26,10,58,17.80
2019,06,26,10,59,17.80
2019,06,26,11,00,17.90
2019,06,26,11,01,17.90
2019,06,26,11,02,18.00
2019,06,26,11,03,18.00
2019,06,26,11,04,18.10
2019,06,26,11,05,18.20
2019,06,26,11,06,18.30
2019,06,26,11,07,18.40
2019,06,26,11,08,18.40
2019,06,26,11,09,18.40
2019,06,26,11,10,18.40
2019,06,26,11,11,18.40
2019,06,26,11,12,18.40
2019,06,26,11,13,18.50
2019,06,26,11,14,18.50
2019,06,26,11,15,18.50
2019,06,26,11,16,18.50
2019,06,26,11,17,18.50
2019,06,26,11,18,18.50
2019,06,26,11,19,18.50
2019,06,26,11,20,18.40
2019,06,26,11,21,18.40
2019,06,26,11,22,18.40
2019,06,26,11,23,18.40
2019,06,26,11,24,18.40
2019,06,26,11,25,18.40
2019,06,26,11,26,18.40
2019,06,26,11,27,18.40
2019,06,26,11,28,18.30
2019,06,26,11,29,18.30
2019,06,26,11,30,18.30
2019,06,26,11,31,18.20
2019,06,26,11,32,18.20
2019,06,26,11,33,18.00
2019,06,26,11,34,17.90
2019,06,26,11,35,17.90
2019,06,26,11,36,17.80
2019,06,26,11,37,17.80
2019,06,26,11,38,17.70
2019,06,26,11,39,17.80
2019,06,26,11,40,17.80
2019,06,26,11,41,17.90
2019,06,26,11,42,17.90
2019,06,26,11,43,17.90
2019,06,26,11,44,17.90
2019,06,26,11,45,17.90
2019,06,26,11,46,17.90
2019,06,26,11,47,17.80
2019,06,26,11,48,17.80
2019,06,26,11,49,17.80
2019,06,26,11,50,17.80
2019,06,26,11,51,17.90
2019,06,26,11,52,17.90
2019,06,26,11,53,17.90
2019,06,26,11,54,17.90
2019,06,26,11,55,18.00
2019,06,26,11,56,18.00
2019,06,26,11,57,18.00
2019,06,26,11,58,18.00
2019,06,26,11,59,17.90
2019,06,26,12,00,17.80
2019,06,26,12,01,17.80
2019,06,26,12,02,17.80
2019,06,26,12,03,17.80
2019,06,26,12,04,17.90
2019,06,26,12,05,17.90
2019,06,26,12,06,17.90
2019,06,26,12,07,17.90
2019,06,26,12,08,18.00
2019,06,26,12,09,18.00
2019,06,26,12,10,18.00
2019,06,26,12,11,18.00
2019,06,26,12,12,18.00
2019,06,26,12,13,18.10
2019,06,26,12,14,18.10
2019,06,26,12,15,18.20
2019,06,26,12,16,18.30
2019,06,26,12,17,18.40
2019,06,26,12,18,18.50
2019,06,26,12,19,18.50
2019,06,26,12,20,18.60
2019,06,26,12,21,18.70
2019,06,26,12,22,18.80
2019,06,26,12,23,18.80
2019,06,26,12,24,18.80
2019,06,26,12,25,18.70
2019,06,26,12,26,18.70
2019,06,26,12,27,18.70
2019,06,26,12,28,18.60
2019,06,26,12,29,18.50
2019,06,26,12,30,18.50
2019,06,26,12,31,18.40
2019,06,26,12,32,18.30
2019,06,26,12,33,18.20
2019,06,26,12,34,18.20
2019,06,26,12,35,18.30
2019,06,26,12,36,18.30
2019,06,26,12,37,18.20
2019,06,26,12,38,18.20
2019,06,26,12,39,18.20
2019,06,26,12,40,18.20
2019,06,26,12,41,18.20
2019,06,26,12,42,18.20
2019,06,26,12,43,18.20
2019,06,26,12,44,18.20
2019,06,26,12,45,18.20
2019,06,26,12,46,18.20
2019,06,26,12,47,18.10
2019,06,26,12,48,18.10
2019,06,26,12,49,18.00
2019,06,26,12,50,18.00
2019,06,26,12,51,18.10
2019,06,26,12,52,18.10
2019,06,26,12,53,18.20
2019,06,26,12,54,18.30
2019,06,26,12,55,18.30
2019,06,26,12,56,18.30
2019,06,26,12,57,18.30
2019,06,26,12,58,18.30
2019,06,26,12,59,18.30
2019,06,26,13,00,18.30
2019,06,26,13,01,18.30
2019,06,26,13,02,18.30
2019,06,26,13,03,18.30
2019,06,26,13,04,18.30
2019,06,26,13,05,18.40
2019,06,26,13,06,18.50
2019,06,26,13,07,18.50
2019,06,26,13,08,18.60
2019,06,26,13,09,18.60
2019,06,26,13,10,18.60
2019,06,26,13,11,18.60
2019,06,26,13,12,18.60
2019,06,26,13,13,18.60
2019,06,26,13,14,18.60
2019,06,26,13,15,18.60
2019,06,26,13,16,18.60
2019,06,26,13,17,18.60
2019,06,26,13,18,18.60
2019,06,26,13,19,18.70
2019,06,26,13,20,18.70
2019,06,26,13,21,18.70
2019,06,26,13,22,18.70
2019,06,26,13,23,18.70
2019,06,26,13,24,18.70
2019,06,26,13,25,18.70
2019,06,26,13,26,18.80
2019,06,26,13,27,18.90
2019,06,26,13,28,18.90
2019,06,26,13,29,18.90
2019,06,26,13,30,18.90
2019,06,26,13,31,18.80
2019,06,26,13,32,18.80
2019,06,26,13,33,18.80
2019,06,26,13,34,18.80
2019,06,26,13,35,18.80
2019,06,26,13,36,18.80
2019,06,26,13,37,18.80
2019,06,26,13,38,18.80
2019,06,26,13,39,18.80
2019,06,26,13,40,18.90
2019,06,26,13,41,18.90
2019,06,26,13,42,18.90
2019,06,26,13,43,18.90
2019,06,26,13,44,18.90
2019,06,26,13,45,18.90
2019,06,26,13,46,18.90
2019,06,26,13,47,18.80
2019,06,26,13,48,18.90
2019,06,26,13,49,18.90
2019,06,26,13,50,18.90
2019,06,26,13,51,19.00
2019,06,26,13,52,19.00
2019,06,26,13,53,19.10
2019,06,26,13,54,19.10
2019,06,26,13,55,19.10
2019,06,26,13,56,19.10
2019,06,26,13,57,19.20
2019,06,26,13,58,19.20
2019,06,26,13,59,19.20
2019,06,26,14,00,19.10
2019,06,26,14,01,19.10
2019,06,26,14,02,19.00
2019,06,26,14,03,19.00
2019,06,26,14,04,19.00
2019,06,26,14,05,18.90
2019,06,26,14,06,19.00
2019,06,26,14,07,19.00
2019,06,26,14,08,19.00
2019,06,26,14,09,19.00
2019,06,26,14,10,19.10
2019,06,26,14,11,19.20
2019,06,26,14,12,19.20
2019,06,26,14,13,19.30
2019,06,26,14,14,19.40
2019,06,26,14,15,19.50
2019,06,26,14,16,19.60
2019,06,26,14,17,19.60
2019,06,26,14,18,19.50
2019,06,26,14,19,19.50
2019,06,26,14,20,19.50
2019,06,26,14,21,19.60
2019,06,26,14,22,19.60
2019,06,26,14,23,19.60
2019,06,26,14,24,19.60
2019,06,26,14,25,19.60
2019,06,26,14,26,19.60
2019,06,26,14,27,19.50
2019,06,26,14,28,19.50
2019,06,26,14,29,19.50
2019,06,26,14,30,19.50
2019,06,26,14,31,19.60
2019,06,26,14,32,19.60
2019,06,26,14,33,19.70
2019,06,26,14,34,19.70
2019,06,26,14,35,19.80
2019,06,26,14,36,19.80
2019,06,26,14,37,19.90
2019,06,26,14,38,20.00
2019,06,26,14,39,20.00
2019,06,26,14,40,20.00
2019,06,26,14,41,19.90
2019,06,26,14,42,20.00
2019,06,26,14,43,20.00
2019,06,26,14,44,20.10
2019,06,26,14,45,20.20
2019,06,26,14,46,20.20
2019,06,26,14,47,20.30
2019,06,26,14,48,20.30
2019,06,26,14,49,20.20
2019,06,26,14,50,20.20
2019,06,26,14,51,20.20
2019,06,26,14,52,20.20
2019,06,26,14,53,20.30
2019,06,26,14,54,20.30
2019,06,26,14,55,20.40
2019,06,26,14,56,20.50
2019,06,26,14,57,20.60
2019,06,26,14,58,20.70
2019,06,26,14,59,20.70
2019,06,26,15,00,20.70
2019,06,26,15,01,20.70
2019,06,26,15,02,20.70
2019,06,26,15,03,20.70
2019,06,26,15,04,20.70
2019,06,26,15,05,20.70
2019,06,26,15,06,20.70
2019,06,26,15,07,20.70
2019,06,26,15,08,20.80
2019,06,26,15,09,20.90
2019,06,26,15,10,20.90
2019,06,26,15,11,20.90
2019,06,26,15,12,20.90
2019,06,26,15,13,20.90
2019,06,26,15,14,20.90
2019,06,26,15,15,20.90
2019,06,26,15,16,21.00
2019,06,26,15,17,21.00
2019,06,26,15,18,21.00
2019,06,26,15,19,21.00
2019,06,26,15,20,21.00
2019,06,26,15,21,21.10
2019,06,26,15,22,21.20
2019,06,26,15,23,21.20
2019,06,26,15,24,21.30
2019,06,26,15,25,21.30
2019,06,26,15,26,21.20
2019,06,26,15,27,21.20
2019,06,26,15,28,21.20
2019,06,26,15,29,21.20
2019,06,26,15,30,21.20
2019,06,26,15,31,21.10
2019,06,26,15,32,21.10
2019,06,26,15,33,21.10
2019,06,26,15,34,21.20
2019,06,26,15,35,21.20
2019,06,26,15,36,21.30
2019,06,26,15,37,21.40
2019,06,26,15,38,21.40
2019,06,26,15,39,21.50
2019,06,26,15,40,21.40
2019,06,26,15,41,21.40
2019,06,26,15,42,21.30
2019,06,26,15,43,21.30
2019,06,26,15,44,21.40
2019,06,26,15,45,21.40
2019,06,26,15,46,21.40
2019,06,26,15,47,21.30
2019,06,26,15,48,21.30
2019,06,26,15,49,21.30
2019,06,26,15,50,21.20
2019,06,26,15,51,21.20
2019,06,26,15,52,21.20
2019,06,26,15,53,21.20
2019,06,26,15,54,21.20
2019,06,26,15,55,21.20
2019,06,26,15,56,21.20
2019,06,26,15,57,21.20
2019,06,26,15,58,21.10
2019,06,26,15,59,21.10
2019,06,26,16,00,21.10
2019,06,26,16,01,21.10
2019,06,26,16,02,21.10
2019,06,26,16,03,21.20
2019,06,26,16,04,21.20
2019,06,26,16,05,21.30
2019,06,26,16,06,21.40
2019,06,26,16,07,21.40
2019,06,26,16,08,21.40
2019,06,26,16,09,21.40
2019,06,26,16,10,21.30
2019,06,26,16,11,21.40
2019,06,26,16,12,21.40
2019,06,26,16,13,21.40
2019,06,26,16,14,21.40
2019,06,26,16,15,21.50
2019,06,26,16,16,21.50
2019,06,26,16,17,21.60
2019,06,26,16,18,21.60
2019,06,26,16,19,21.60
2019,06,26,16,20,21.70
2019,06,26,16,21,21.70
2019,06,26,16,22,21.80
2019,06,26,16,23,21.70
2019,06,26,16,24,21.70
2019,06,26,16,25,21.70
2019,06,26,16,26,21.70
2019,06,26,16,27,21.60
2019,06,26,16,28,21.60
2019,06,26,16,29,21.70
2019,06,26,16,30,21.70
2019,06,26,16,31,21.80
2019,06,26,16,32,21.80
2019,06,26,16,33,21.80
2019,06,26,16,34,21.90
2019,06,26,16,35,22.00
2019,06,26,16,36,22.00
2019,06,26,16,37,22.10
2019,06,26,16,38,22.20
2019,06,26,16,39,22.20
2019,06,26,16,40,22.20
2019,06,26,16,41,22.30
2019,06,26,16,42,22.30
2019,06,26,16,43,22.30
2019,06,26,16,44,22.30
2019,06,26,16,45,22.30
2019,06,26,16,46,22.40
2019,06,26,16,47,22.50
2019,06,26,16,48,22.50
2019,06,26,16,49,22.60
2019,06,26,16,50,22.60
2019,06,26,16,51,22.60
2019,06,26,16,52,22.60
2019,06,26,16,53,22.60
2019,06,26,16,54,22.70
2019,06,26,16,55,22.70
2019,06,26,16,56,22.80
2019,06,26,16,57,22.80
2019,06,26,16,58,22.80
2019,06,26,16,59,22.80
2019,06,26,17,00,22.90
2019,06,26,17,01,23.00
2019,06,26,17,02,23.00
2019,06,26,17,03,23.00
2019,06,26,17,04,23.00
2019,06,26,17,05,23.00
2019,06,26,17,06,23.00
2019,06,26,17,07,23.00
2019,06,26,17,08,23.00
2019,06,26,17,09,22.90
2019,06,26,17,10,22.90
2019,06,26,17,11,23.00
2019,06,26,17,12,23.00
2019,06,26,17,13,23.00
2019,06,26,17,14,23.00
2019,06,26,17,15,23.10
2019,06,26,17,16,23.20
2019,06,26,17,17,23.20
2019,06,26,17,18,23.20
2019,06,26,17,19,23.30